Regional Weather Roundup
Issued by NWS Cleveland, OH

Home | Current Version | Previous Version | Graphics & Text | Print | Product List | Glossary On
Versions: 1 2 3 4 5 6 7 8 9 10 11 12 13 14 15 16 17 18 19 20 21 22 23 24 25 26 27 28 29 30 31 32 33 34 35 36 37 38 39 40 41 42 43 44 45 46 47 48 49 50
113
ASUS41 KCLE 260310
RWRCLE
OHIO REGIONAL WEATHER ROUNDUP
NATIONAL WEATHER SERVICE CLEVELAND, OH
1100 PM EDT THU MAY 25 2017

NOTE: "FAIR" INDICATES FEW OR NO CLOUDS BELOW 12,000 FEET WITH NO
SIGNIFICANT WEATHER AND/OR OBSTRUCTIONS TO VISIBILITY.

OHZ001>008-015>018-024>027-034-035-043-044-260400-
   NORTHWEST OHIO

CITY           SKY/WX    TMP DP  RH WIND       PRES   REMARKS
DEFIANCE       MOCLDY    59  55  87 W8        29.67R
FINDLAY        CLOUDY    62  55  77 W10       29.64R
TOLEDO EXPRESS CLOUDY    60  57  89 W7        29.64R
TOLEDO EXEC    CLOUDY    61  57  87 W9        29.63R
LIMA           CLOUDY    60  57  89 W13       29.68R
$$

OHZ009>014-019>023-028>033-038-089-260400-
   NORTHEAST OHIO

CITY           SKY/WX    TMP DP  RH WIND       PRES   REMARKS
CLE-HOPKINS    LGT RAIN  61  58  90 NW10      29.60R FOG
CLE-LAKEFRONT  LGT RAIN  57  55  93 W3        29.57R FOG
CUY CO. ARPT   LGT RAIN  57  55  94 W6        29.58R FOG
LORAIN-ELYRIA  CLOUDY    59  54  83 NW14      29.61R
ASHTABULA      LGT RAIN  57  56  96 W6        29.58R
AKRON-CANTON   RAIN      57  53  86 NE3       29.59R FOG
WOOSTER        LGT RAIN  58  57  97 NW12      29.61R
MANSFIELD      CLOUDY    59  58  96 W8        29.63R
YOUNGSTOWN     LGT RAIN  55  53  93 W3        29.58R
$$

OHZ042-051>053-060>062-070>072-077>081-260400-
  SOUTHWEST OHIO

CITY           SKY/WX    TMP DP  RH WIND       PRES   REMARKS
CINC-COVINGTON CLOUDY    61  57  87 W5        29.76R
CINC-LUNKEN    CLOUDY    63  57  81 W10       29.76R
HAMILTON       CLOUDY    62  57  83 W9        29.75R
DAYTON         CLOUDY    60  55  83 W16       29.73R
WRIGHT-PAT AFB MOCLDY    61  58  90 W12       29.71R
DAYTON GENERAL CLOUDY    61  55  81 W8        29.73R
WILMINGTON     CLOUDY    60  57  89 W13       29.72R
$$

OHZ036-037-039>041-045>050-054>059-063>069-073>076-082>088-260400-
  CENTRAL AND SOUTHEAST OHIO

CITY           SKY/WX    TMP DP  RH WIND       PRES   REMARKS
COLUMBUS       CLOUDY    62  59  90 W13       29.65R
OSU AIRPORT    CLOUDY    61  59  93 W13       29.66R
BOLTON FIELD   CLOUDY    60  58  92 W9G16     29.68R
RICKENBACK AFB CLOUDY    60  59  97 W12       29.67R
NEWARK         CLOUDY    62  58  86 NW10      29.63R
MARION         CLOUDY    61  57  87 W10       29.65R
LANCASTER      CLOUDY    63  58  83 W9        29.67R
ZANESVILLE     MOCLDY    62  58  86 NW10      29.61R
NEW PHILLY     NOT AVBL
$$




USA.gov is the U.S. government's official web portal to all federal, state and local government web resources and services.